Fallon NAS, NV

11:49 AM PDT on July 24, 2017 (GMT -0700)
Fallon Naval Air Station

Weather History for KNFL - December, 2012

Change the Weather History Date:

Monday, December 3, 2012

  Actual Average Record
Temperature  
Mean Temperature 39 °F -  
Max Temperature 54 °F 52 °F 66 °F (1940)
Min Temperature 24 °F 22 °F 8 °F (1934)
Degree Days  
Heating Degree Days 26    
Moisture  
Dew Point 27 °F    
Average Humidity 66    
Maximum Humidity 88    
Minimum Humidity 37    
Precipitation  
Precipitation 0.00 in - - ()
Sea Level Pressure  
Sea Level Pressure 30.06 in    
Wind  
Wind Speed 3 mph (SE)    
Max Wind Speed 7 mph    
Max Gust Speed -    
Visibility 10 miles    
Events      
Averages and records for this station are not official NWS values.
T = Trace of Precipitation, MM = Missing Value Source: NWS Daily Summary

Daily Weather History Graph

Daily Weather History Graph

Search for Another Location

Airport or City:

Trip Planner

Search our weather history database for the weather conditions in past years. The results will help you decide how hot, cold, wet, or windy it might be!

Date:

Astronomy

Dec. 03, 2012 Rise Set
Actual Time 6:58 AM PST 4:31 PM PST
Civil Twilight 6:28 AM PST 5:01 PM PST
Nautical Twilight 5:55 AM PST 5:34 PM PST
Astronomical Twilight 5:22 AM PST 6:06 PM PST
Moon 9:22 PM PST (12/3) 10:24 AM PST (12/3)
Length of Visible Light 10h 32m
Length of Day
9h 32m
Waning Gibbous, 77% of the Moon is Illuminated
Dec 3
Waning Gibbous
Dec 6
Last Quarter
Dec 13
New
Dec 19
First Quarter
Dec 28
Full

Hourly Weather History & Observations

Time (PST) Temp. Windchill Dew Point Humidity Pressure Visibility Wind Dir Wind Speed Gust Speed Precip Events Conditions
12:56 AM 26.1 °F 19.4 °F 21.9 °F 84% 29.99 in 10.0 mi SSE 5.8 mph - N/A   Clear
1:56 AM 28.0 °F 20.8 °F 24.1 °F 85% 30.00 in 10.0 mi SSE 6.9 mph - N/A   Clear
2:56 AM 28.9 °F 23.9 °F 24.1 °F 82% 30.03 in 10.0 mi SSW 4.6 mph - N/A   Partly Cloudy
3:56 AM 28.9 °F - 24.1 °F 82% 30.01 in 10.0 mi Calm Calm - N/A   Clear
4:56 AM 26.1 °F 20.5 °F 21.9 °F 84% 30.04 in 10.0 mi SSE 4.6 mph - N/A   Clear
5:56 AM 24.1 °F 19.7 °F 21.0 °F 88% 30.04 in 10.0 mi ESE 3.5 mph - N/A   Clear
6:16 AM 26.6 °F - 21.2 °F 80% 30.14 in 10.0 mi Calm Calm - N/A   Overcast
6:56 AM 26.1 °F - 21.0 °F 81% 30.05 in 10.0 mi Calm Calm - N/A   Overcast
7:56 AM 28.0 °F - 23.0 °F 81% 30.07 in 10.0 mi Calm Calm - N/A   Overcast
8:56 AM 35.1 °F - 28.0 °F 76% 30.09 in 10.0 mi Calm Calm - N/A   Overcast
9:56 AM 41.0 °F - 28.9 °F 62% 30.10 in 10.0 mi Calm Calm - N/A   Overcast
10:56 AM 45.0 °F - 28.9 °F 53% 30.10 in 10.0 mi Calm Calm - N/A   Overcast
11:56 AM 48.9 °F - 28.0 °F 44% 30.08 in 10.0 mi Calm Calm - N/A   Mostly Cloudy
12:56 PM 51.1 °F - 27.0 °F 39% 30.06 in 10.0 mi South 4.6 mph - N/A   Scattered Clouds
1:56 PM 52.0 °F - 26.1 °F 37% 30.06 in 10.0 mi SE 4.6 mph - N/A   Mostly Cloudy
2:56 PM 54.0 °F - 28.0 °F 37% 30.04 in 10.0 mi Calm Calm - N/A   Overcast
3:56 PM 48.9 °F - 30.9 °F 50% 30.05 in 10.0 mi NNE 5.8 mph - N/A   Mostly Cloudy
4:56 PM 46.0 °F 42.5 °F 30.9 °F 56% 30.05 in 10.0 mi NE 6.9 mph - N/A   Mostly Cloudy
5:56 PM 44.1 °F 40.8 °F 30.9 °F 60% 30.06 in 10.0 mi NE 5.8 mph - N/A   Overcast
6:56 PM 41.0 °F 38.0 °F 28.9 °F 62% 30.08 in 10.0 mi NE 4.6 mph - N/A   Mostly Cloudy
7:56 PM 39.9 °F - 28.0 °F 63% 30.08 in 10.0 mi Calm Calm - N/A   Overcast
8:56 PM 42.1 °F - 28.9 °F 60% 30.07 in 10.0 mi Calm Calm - N/A   Mostly Cloudy
9:56 PM 39.0 °F 35.7 °F 28.0 °F 65% 30.08 in 10.0 mi South 4.6 mph - N/A   Mostly Cloudy
10:56 PM 41.0 °F 39.0 °F 30.0 °F 65% 30.08 in 10.0 mi SE 3.5 mph - N/A   Overcast
11:56 PM 42.1 °F 38.4 °F 30.0 °F 62% 30.06 in 10.0 mi ESE 5.8 mph - N/A   Mostly Cloudy